Location: Clyde
(45.1830°S, 169.3170°E)
Time: 00:39:09
(UTC+12:00)

Cosmos 1242 Rocket - Pass Details

Date: 24 January 2019
Orbit: 450 x 489 km, 81.2° (Epoch: 21 April)

Event Time Altitude Azimuth Distance (km) Brightness Sun altitude
Rises 22:53:37 0° 195° (SSW) 2,609 7.4 -13.6°
Reaches altitude 10° 22:55:46 10° 198° (SSW) 1,719 6.4 -13.8°
Maximum altitude 22:59:29 60° 277° (W) 579 3.1 -14.3°
Enters shadow 23:02:18 16° 354° (N) 1,349 4.4 -14.6°
